Regional Weather Roundup
Issued by NWS

Home | Current Version | Previous Version | Text Only | Print | Product List | Glossary Off
Versions: 1 2 3 4 5 6 7 8 9 10 11 12 13 14 15 16 17 18 19 20 21 22 23 24 25 26 27 28 29 30 31 32 33 34 35 36 37 38 39 40 41 42 43 44 45 46 47 48 49 50

000
ASUS44 KMEG 200300
RWRTN
TENNESSEE HOURLY STATE WEATHER ROUNDUP
NATIONAL WEATHER SERVICE MEMPHIS TN
1000 PM CDT FRI SEP 19 2014

TNZ002-004-019-021-049-052-054-088>092-200400-
WEST TENNESSEE

CITY           SKY/WX    TMP DP  RH WIND       PRES   REMARKS
MEMPHIS INTL   CLEAR     74  67  78 CALM      30.03R
NWS MEMPHIS      N/A     71 N/A N/A MISG        N/A
JACKSON        FOG       67  65  93 CALM      30.04R VSB 1/2
DYERSBURG      CLEAR     68  57  68 CALM      30.04R
UNION CITY     CLEAR     63  63 100 CALM      30.03R
PARIS          CLEAR     61  59  94 CALM      30.05R
SAVANNAH       CLEAR     66  66 100 CALM      30.05R
$$

TNZ008-025-027-028-033-062-065-066-200400-
NORTH MIDDLE TENNESSEE

CITY           SKY/WX    TMP DP  RH WIND       PRES   REMARKS
NASHVILLE      PTCLDY    71  65  81 CALM      30.06R
CLARKSVILLE    PTCLDY    67  62  84 SE3       30.05R
COOKEVILLE     PTCLDY    64  64 100 CALM      30.10R
CROSSVILLE     CLEAR     67  61  81 S3        30.16R
$$

TNZ061-075-076-078-094-096-097-200400-
SOUTH MIDDLE TENNESSEE

CITY           SKY/WX    TMP DP  RH WIND       PRES   REMARKS
WINCHESTER     PTCLDY    72  64  78 SE7       30.10R
SHELBYVILLE    CLEAR     73  66  78 SE5       30.09R
$$

TNZ017-018-042-046-047-200400-
NORTHEAST TENNESSEE

CITY           SKY/WX    TMP DP  RH WIND       PRES   REMARKS
TRI CITIES     CLEAR     65  53  65 CALM      30.20R
ELIZABETHTON   CLEAR     63  55  77 E5        30.22R
$$

TNZ012-013-036-069-073-074-200400-
CENTRAL EAST TENNESSEE

CITY           SKY/WX    TMP DP  RH WIND       PRES   REMARKS
KNOXVILLE      MOCLDY    72  60  66 S10       30.12R
OAK RIDGE      MOCLDY    74  65  73 CALM      30.14R
GATLINBURG     CLOUDY    68  59  73 CALM      30.13S
$$

TNZ083-085-099-200400-
SOUTHEAST TENNESSEE

CITY           SKY/WX    TMP DP  RH WIND       PRES   REMARKS
CHATTANOOGA    MOCLDY    75  61  61 S6        30.12R
$$

SKY/WX REPORTED AS FAIR MEANS FEW OR NO CLOUDS BELOW
12 THOUSAND FEET.




USA.gov is the U.S. government's official web portal to all federal, state and local government web resources and services.